ETSH

Details ICAO ETSH
Name Holzdorf
Region Germany - Military
Timezone Europe/Berlin (UTC+2.0)
Plans Departing 5
Arriving 7
Stats Elevation 265 ft / 81 m (AMSL)
Location 51.767834° 13.167667°
Runways 1
Magnetic Variation 3.731° E
Sunrise 2018-05-27 03:00:43 UTC / 2018-05-27 05:00:43 Local
Sunset 2018-05-27 19:11:07 UTC / 2018-05-27 21:11:07 Local
Advertisement - Login to hide

Runways

ID Width Length Bearing (true) Bearing (mag) Surface Threshold Offset Overrun Length
09 98 ft / 30 m 7,919 ft / 2,414 m 93.51° 89.78° Asphalt 0 ft / 0 m 1,001 ft / 305 m
27 98 ft / 30 m 7,919 ft / 2,414 m 273.54° 269.81° Asphalt 0 ft / 0 m 1,001 ft / 305 m

Approach Navaids

Runway Type Ident Frequency Range Bearing (true) Bearing (mag) Slope Elevation
27 Localiser IHDW 111.70 MHz 18 nm / 33 km 273.62° 269.89° - 264 ft / 80 m (AMSL)
27 Glidescope IHDW 111.70 MHz 10 nm / 19 km 273.52° 269.79° 3.00° 296 ft / 90 m (AMSL)

Map

Weather


0- 5 10 15 20 25 30 35+ Temperature / ° C

Clouds and Precipitation
Forecast for 2018-05-27 00:00 UTC. Updated 6 hours ago

Ground ~20,000 ft ~40,000 ft Winds

METAR

ETSH 270420Z 10001KT 9999 FEW040 14/12 Q1021 BLU+

TAF

Not found

Frequencies

Tower 125.80 MHz BERLIN INFO
Tower 130.50 MHz TWR
Approach 129.85 MHz RADAR
Tower 122.10 MHz TWR
Approach 123.30 MHz RADAR
Approach 126.42 MHz BERLIN ARR
Warning: Do not use this data for real-world aviation or navigation. No guarantee of current accuracy is given.